Weather in Platres

Cyprus     34°52′44″N   32°50′24″E
temp.,
°C
wind,
m/s
gust,
m/s
humid.,
%
clouds,
%
prec.,
mm/h
press.,
hPa
HPBL,
m
7 may, fri
fri700:00+15wsw11635 0.0 101315
03:00+15e225673 0.0 101212
06:00+15ese225537 0.0 101311
09:00+23ne11373 0.0 1013855
12:00+27nnw3329100 0.0 10131691
15:00+26nw333383 0.0 10141505
18:00+24nw333430 0.0 1014817
21:00+17n015530 0.0 101511
8 may, sat
sat800:00+16se11415 0.0 101511
03:00+17s22300 0.0 101511
06:00+16ese11305 0.0 101511
09:00+27s121692 0.0 1014463
12:00+29w222046 0.0 10141287
15:00+29wnw332597 0.0 10141210
18:00+26wnw2232100 0.0 1013581
21:00+21sse3438100 0.0 101349
9 may, sun
sun900:00+21sse332095 0.0 101133
03:00+20ssw33223 0.0 101233
06:00+20s3321100 0.0 101124
09:00+27s361654 0.0 1010602
12:00+30wnw261945 0.0 10101340
15:00+30wnw39221 0.0 10091440
18:00+27nnw23270 0.0 1009681
21:00+20e22495 0.0 101014
10 may, mon
mon1000:00+18ene32483 0.0 101129
03:00+17ene22446 0.0 101118
06:00+16e223913 0.0 101222
09:00+24nne22230 0.0 1012612
12:00+28nnw23220 0.0 10111690
15:00+27n32260 0.0 10111412
18:00+23nne32270 0.0 1011593
21:00+16ne22400 0.0 101218
11 may, tue
tue1100:00+16ene11410 0.0 101213
03:00+15e11420 0.0 101111
06:00+15ese11450 0.0 101111
09:00+24w01300 0.0 1011947
12:00+27w33220 0.0 10101784
15:00+27w33240 0.0 10101624
18:00+24wnw22290 0.0 1009907
21:00+17wsw11490 0.0 101011